Location: Marion Hill
(40.7303°N, 80.2959°W)
Time: 08:27:49
(UTC+00:00)

Helios 1A Rocket - Pass Details

Date: 29 October 2020
Orbit: 562 x 587 km, 98.3° (Epoch: 28 November)

Event Time Altitude Azimuth Distance (km) Brightness Sun altitude
Rises 23:35:44 0° 159° (SSE) 2,793 6.3 -14.8°
Reaches altitude 10° 23:37:54 10° 156° (SSE) 1,895 5.4 -15.2°
Maximum altitude 23:41:58 66° 75° (ENE) 636 2.8 -16.0°
Drops below altitude 10° 23:46:02 10° 353° (N) 1,896 5.6 -16.7°
Sets 23:48:12 0° 350° (N) 2,795 6.5 -17.1°
